Weather History for Berlin, NH

Change the Weather History Date:

Friday, August 17, 2012

  Actual Average Record
Temperature  
Mean Temperature 66 °F -  
Max Temperature 82 °F 74 °F 84 °F (2002)
Min Temperature 51 °F 47 °F 42 °F (2005)
Cooling Degree Days 1    
Growing Degree Days 16 (Base 50)    
Moisture  
Dew Point 57 °F    
Average Humidity 86    
Maximum Humidity 100    
Minimum Humidity 50    
Precipitation  
Precipitation 0.01 in - - ()
Sea Level Pressure  
Sea Level Pressure 29.83 in    
Wind  
Wind Speed 1 mph (SSE)    
Max Wind Speed 9 mph    
Max Gust Speed 21 mph    
Visibility 4 miles    
Events Fog , Rain    
Averages and records for this station are not official NWS values.
T = Trace of Precipitation, MM = Missing Value Source: NWS Daily Summary

Daily Weather History Graph

Daily Weather History Graph

Search for Another Location

Airport:

Trip Planner

Search our weather history database for the weather conditions in past years. The results will help you decide how hot, cold, wet, or windy it might be!

Date:

Astronomy

Aug. 17, 2012 Rise Set
Actual Time 5:50 AM EDT 7:46 PM EDT
Civil Twilight 5:18 AM EDT 8:17 PM EDT
Nautical Twilight 4:40 AM EDT 8:55 PM EDT
Astronomical Twilight 3:58 AM EDT 9:37 PM EDT
Moon 5:52 AM EDT (8/17) 7:23 PM EDT (8/17)
Length of Visible Light 14h 58m
Length of Day
13h 56m
New Moon, 0% of the Moon is Illuminated
Aug 17
New Moon
Aug 24
First Quarter
Aug 31
Full
Sep 8
Last Quarter
Sep 15
New

Hourly Weather History & Observations

Time (EDT) Temp. Heat Index Dew Point Humidity Pressure Visibility Wind Dir Wind Speed Gust Speed Precip Events Conditions
12:22 AM 57.2 °F - 55.4 °F 94% 29.85 in 1.0 mi Calm Calm - N/A   Mist
12:24 AM 57.2 °F - 55.4 °F 94% 29.85 in 2.0 mi Calm Calm - N/A   Mostly Cloudy
12:34 AM 57.2 °F - 55.4 °F 94% 29.85 in 0.2 mi Calm Calm - N/A Fog Fog
12:52 AM 55.9 °F - 55.9 °F 100% 29.85 in 0.2 mi Calm Calm - N/A Fog Fog
1:52 AM 55.9 °F - 55.0 °F 97% 29.85 in 0.2 mi Calm Calm - N/A Fog Fog
2:52 AM 55.0 °F - 54.0 °F 96% 29.86 in 0.2 mi Calm Calm - N/A Fog Fog
3:14 AM 53.6 °F - 53.6 °F 100% 29.86 in 1.0 mi SSE 3.5 mph - N/A   Mist
3:35 AM 51.8 °F - 51.8 °F 100% 29.85 in 2.0 mi Calm Calm - N/A   Overcast
3:40 AM 53.6 °F - 51.8 °F 94% 29.86 in 1.2 mi Calm Calm - N/A   Overcast
3:45 AM 53.6 °F - 51.8 °F 94% 29.86 in 0.2 mi Calm Calm - N/A Fog Fog
3:52 AM 54.0 °F - 53.1 °F 97% 29.86 in 0.2 mi Calm Calm - N/A Fog Fog
4:44 AM 53.6 °F - 53.6 °F 100% 29.86 in 0.2 mi Calm Calm - N/A Fog Fog
4:52 AM 54.0 °F - 53.1 °F 97% 29.86 in 0.2 mi Calm Calm - N/A Fog Fog
5:52 AM 53.1 °F - 53.1 °F 100% 29.86 in 0.2 mi Calm Calm - N/A Fog Fog
6:01 AM 53.6 °F - 53.6 °F 100% 29.86 in 0.2 mi Calm Calm - N/A Fog Fog
6:34 AM 53.6 °F - 53.6 °F 100% 29.86 in 0.2 mi Calm Calm - 0.01 in Fog Fog
6:52 AM 54.0 °F - 54.0 °F 100% 29.87 in 0.2 mi Calm Calm - 0.01 in Fog Fog
7:18 AM 55.4 °F - 53.6 °F 94% 29.86 in 0.2 mi Calm Calm - N/A Fog Fog
7:52 AM 55.9 °F - 55.0 °F 97% 29.86 in 0.2 mi Calm Calm - N/A Fog Fog
8:41 AM 57.2 °F - 57.2 °F 100% 29.85 in 0.2 mi Calm Calm - N/A Fog Fog
8:52 AM 57.9 °F - 57.0 °F 97% 29.85 in 0.2 mi Calm Calm - N/A Fog Fog
9:02 AM 59.0 °F - 57.2 °F 94% 29.84 in 2.0 mi Calm Calm - N/A   Overcast
9:11 AM 60.8 °F - 57.2 °F 88% 29.85 in 5.0 mi Calm Calm - N/A   Overcast
9:32 AM 62.6 °F - 60.8 °F 94% 29.84 in 10.0 mi Calm Calm - N/A   Scattered Clouds
9:52 AM 68.0 °F - 61.0 °F 78% 29.84 in 10.0 mi Calm Calm - N/A   Clear
11:52 AM 77.0 °F - 60.1 °F 56% 29.79 in 10.0 mi SSE 4.6 mph - N/A   Clear
12:52 PM 80.1 °F 80.9 °F 60.1 °F 50% 29.77 in 10.0 mi SE 3.5 mph - N/A   Scattered Clouds
1:52 PM 81.0 °F 81.9 °F 62.1 °F 52% 29.75 in 10.0 mi SSE 9.2 mph - N/A   Mostly Cloudy
2:52 PM 80.1 °F 81.2 °F 62.1 °F 54% 29.74 in 10.0 mi SSE 3.5 mph - N/A   Mostly Cloudy
3:52 PM 81.0 °F 82.5 °F 64.0 °F 56% 29.74 in 10.0 mi South 3.5 mph - N/A   Clear
4:52 PM 78.1 °F - 64.9 °F 64% 29.74 in 10.0 mi Calm Calm - N/A   Overcast
5:52 PM 73.9 °F - 64.0 °F 71% 29.75 in 10.0 mi SSW 9.2 mph 20.7 mph 0.00 in Rain Light Rain
6:52 PM 71.1 °F - 66.0 °F 84% 29.76 in 7.0 mi Calm Calm - 0.00 in   Overcast
7:52 PM 71.1 °F - 66.9 °F 87% 29.79 in 5.0 mi Calm Calm - 0.00 in Rain Light Rain
8:52 PM 71.1 °F - 62.1 °F 73% 29.81 in 10.0 mi Calm Calm - 0.00 in   Mostly Cloudy
9:52 PM 69.1 °F - 61.0 °F 75% 29.82 in 10.0 mi Calm Calm - N/A   Overcast
10:52 PM 68.0 °F - 57.9 °F 70% 29.82 in 10.0 mi Calm Calm - N/A   Clear
11:52 PM 64.0 °F - 60.1 °F 87% 29.83 in 10.0 mi Calm Calm - N/A   Clear